Simultaneous Nadir Overpasses (SNOs) Predictions

Prediction of SNOs between GOES-14 and AQUA Satellite Orbit:

Table of predicted SNOs for the next 14.0 days since TLE Epoch: 4/23/2022
Index Date Time (GOES-14) GOES-14 Lat,Lon AQUA Lat,Lon Distance(km) Time Diff (sec)
1 04/24/2022 20:32:04 -0.11,-104.53 0.04,-103.94 67.61 80
2 04/26/2022 20:19:39 -0.12,-104.53 0.67,-100.92 411.15 80
3 04/27/2022 08:40:50 0.11,-104.44 0.47,-106.05 182.74 80
4 04/29/2022 08:31:05 0.11,-104.45 -0.19,-103.03 161.81 80
5 04/29/2022 20:52:25 -0.09,-104.57 -0.89,-108.21 414.92 80
6 05/01/2022 20:40:00 -0.09,-104.57 -0.21,-105.20 70.63 80
7 05/03/2022 20:24:55 -0.09,-104.57 0.45,-102.17 273.65 80
8 05/04/2022 08:46:05 0.08,-104.46 0.69,-107.30 323.86 80
9 05/06/2022 08:36:19 0.08,-104.46 0.01,-104.28 21.13 80
